277017167,2016-07-25T09:28:23.402,-1799.23, 8055341,  55.74, -40.56, 2574554, 2574977, 2573714, 2574654, 2574859,     404,    0.05,   1.785,    2.12,   22.63,    0.25
277017168,2016-07-25T09:28:27.402,-1795.23, 8033246,  55.33, -41.19, 2575543, 2574949, 2574731, 2575001, 2575581,     244,    0.54,   0.819,    6.87,   30.54,    0.11
277017169,2016-07-25T09:28:31.362,-1791.27, 8012710,  55.08, -41.61, 2575085, 2574867, 2574776, 2574892, 2575115,      92,   -0.35,   0.191,    6.18,   26.24,    0.02
277017170,2016-07-25T09:28:35.322,-1787.31, 7992145,  54.97, -41.82, 2575066, 2574845, 2574762, 2574875, 2575097,      70,    1.29,   0.154,   11.06,   33.37,    0.23
277017171,2016-07-25T09:28:39.282,-1783.35, 7971579,  55.02, -41.85, 2574946, 2574857, 2574745, 2574860, 2574977,      87,    0.94,   0.190,    9.30,   31.61,    0.06
277017172,2016-07-25T09:28:43.242,-1779.39, 7951043,  55.14, -41.82, 2575019, 2574829, 2574748, 2574859, 2575051,      78,    0.75,   0.136,    9.10,   30.94,    0.20
277017173,2016-07-25T09:28:47.402,-1775.23, 7929458,  55.26, -41.80, 2575041, 2574820, 2574749, 2574858, 2575075,      74,   -0.21,   0.091,    8.42,   27.28,    0.05
277017174,2016-07-25T09:28:51.362,-1771.27, 7908862,  55.37, -41.78, 2575078, 2574854, 2574764, 2574872, 2575111,      86,   -0.21,   0.087,    7.71,   28.45,    0.17
277017175,2016-07-25T09:28:55.322,-1767.31, 7888297,  55.45, -41.76, 2574970, 2574881, 2574776, 2574884, 2575003,      87,    1.19,   0.082,    7.94,   28.49,    0.14
277017176,2016-07-25T09:28:59.282,-1763.35, 7867731,  55.49, -41.74, 2575128, 2574865, 2574793, 2574900, 2575162,      94,   -0.09,   0.060,    8.12,   28.26,    0.13
277017177,2016-07-25T09:29:03.242,-1759.39, 7847255,  55.53, -41.73, 2574946, 2574857, 2574766, 2574873, 2574980,      89,    0.94,   0.040,    7.01,   24.58,    0.02
277017178,2016-07-25T09:29:07.402,-1755.23, 7825610,  55.57, -41.72, 2575112, 2574877, 2574795, 2574901, 2575146,      83,    0.46,   0.016,    8.88,   27.62,    0.14
277017179,2016-07-25T09:29:11.362,-1751.27, 7805104,  55.61, -41.70, 2574879, 2574871, 2574796, 2574902, 2574914,      57,    1.34,   0.007,    7.91,   23.93,    0.16
277017180,2016-07-25T09:29:15.322,-1747.31, 7784568,  55.66, -41.69, 2574982, 2574879, 2574758, 2574863, 2575016,     110,    0.29,   0.024,    2.96,   20.02,    0.39
277017181,2016-07-25T09:29:19.282,-1743.35, 7764123,  55.69, -41.67, 2574947, 2574823, 2574760, 2574865, 2574980,      63,    0.05,   0.054,    6.83,   24.85,    0.02
277017182,2016-07-25T09:29:23.242,-1739.39, 7743557,  55.74, -41.66, 2575148, 2574879, 2574798, 2574903, 2575181,     113,   -0.11,   0.069,    8.50,   27.14,    0.05
277017183,2016-07-25T09:29:27.402,-1735.23, 7722002,  55.78, -41.64, 2575048, 2574885, 2574785, 2574890, 2575080,      91,    0.85,   0.097,    7.44,   28.04,    0.14
277017184,2016-07-25T09:29:31.362,-1731.27, 7701556,  55.83, -41.63, 2574983, 2574832, 2574734, 2574839, 2575014,      98,    0.30,   0.113,    6.22,   25.84,    0.04
277017185,2016-07-25T09:29:35.322,-1727.31, 7681020,  55.88, -41.62, 2575169, 2574868, 2574789, 2574895, 2575200,      89,    0.27,   0.124,    8.43,   28.67,    0.21
277017186,2016-07-25T09:29:39.282,-1723.35, 7660514,  55.94, -41.62, 2575136, 2574861, 2574785, 2574889, 2575167,      85,   -0.16,   0.120,    8.81,   28.01,    0.21
277017187,2016-07-25T09:29:43.242,-1719.39, 7640098,  56.01, -41.62, 2574898, 2574851, 2574771, 2574875, 2574929,      67,    1.13,   0.105,    8.52,   27.28,    0.15
277017188,2016-07-25T09:29:47.401,-1715.23, 7618543,  56.08, -41.62, 2575076, 2574887, 2574789, 2574892, 2575107,      98,    0.11,   0.098,    6.94,   25.73,    0.04
277017189,2016-07-25T09:29:51.361,-1711.27, 7598008,  56.14, -41.62, 2575147, 2574887, 2574808, 2574910, 2575179,      87,   -0.60,   0.095,    7.69,   26.56,    0.14
277017190,2016-07-25T09:29:55.321,-1707.31, 7577532,  56.20, -41.62, 2575142, 2574915, 2574833, 2574934, 2575173,      62,    0.47,   0.090,   11.48,   33.12,    0.21
277017191,2016-07-25T09:29:59.281,-1703.35, 7557176,  56.28, -41.63, 2574947, 2574807, 2574757, 2574858, 2574979,      72,   -0.20,   0.071,    6.38,   22.56,    0.01
277017192,2016-07-25T09:30:03.241,-1699.39, 7536580,  56.35, -41.62, 2574974, 2574894, 2574777, 2574877, 2575006,      98,    0.68,   0.066,    6.23,   26.40,    0.07
277017193,2016-07-25T09:30:07.401,-1695.23, 7515115,  56.43, -41.63, 2575129, 2574902, 2574800, 2574900, 2575161,      92,    0.24,   0.054,    8.23,   29.07,    0.01
277017194,2016-07-25T09:30:11.361,-1691.27, 7494699,  56.50, -41.63, 2574942, 2574867, 2574768, 2574867, 2574974,      90,    0.82,   0.048,    6.69,   25.13,    0.05
277017195,2016-07-25T09:30:15.321,-1687.31, 7474223,  56.57, -41.63, 2574948, 2574883, 2574794, 2574893, 2574980,      74,    0.81,   0.043,    8.88,   28.48,    0.07
277017196,2016-07-25T09:30:19.281,-1683.35, 7453807,  56.65, -41.63, 2574899, 2574879, 2574808, 2574906, 2574931,      60,    1.87,   0.035,    9.55,   29.32,    0.21
277017197,2016-07-25T09:30:23.241,-1679.39, 7433361,  56.72, -41.63, 2574893, 2574873, 2574780, 2574879, 2574925,      78,    1.20,   0.036,    8.41,   30.10,    0.12
277017198,2016-07-25T09:30:27.401,-1675.23, 7411926,  56.80, -41.63, 2574940, 2574875, 2574800, 2574897, 2574972,      62,    1.47,   0.039,   11.44,   31.99,    0.19
277017199,2016-07-25T09:30:31.361,-1671.27, 7391480,  56.88, -41.62, 2575042, 2574865, 2574798, 2574895, 2575074,      70,    0.47,   0.050,    9.04,   28.52,    0.14
277017200,2016-07-25T09:30:35.321,-1667.31, 7371065,  56.96, -41.62, 2575037, 2574864, 2574783, 2574880, 2575068,      80,    0.69,   0.058,    8.38,   27.71,    0.08
277017201,2016-07-25T09:30:39.281,-1663.35, 7350649,  57.04, -41.62, 2574955, 2574857, 2574768, 2574865, 2574986,      77,    0.80,   0.077,    7.89,   28.11,    0.04
277017202,2016-07-25T09:30:43.241,-1659.39, 7330233,  57.11, -41.62, 2575006, 2574865, 2574783, 2574879, 2575036,      77,    1.08,   0.086,    8.96,   30.39,    0.10
277017203,2016-07-25T09:30:47.401,-1655.23, 7308798,  57.15, -41.62, 2575218, 2574872, 2574800, 2574897, 2575248,      70,    0.04,   0.084,   11.72,   33.62,    0.19
277017204,2016-07-25T09:30:51.361,-1651.27, 7288382,  57.19, -41.62, 2574898, 2574854, 2574772, 2574868, 2574928,      64,    0.99,   0.081,   10.44,   30.56,    0.09
277017205,2016-07-25T09:30:55.321,-1647.31, 7267966,  57.23, -41.62, 2574943, 2574882, 2574811, 2574907, 2574973,      59,    1.96,   0.097,   11.61,   33.50,    0.22
277017206,2016-07-25T09:30:59.281,-1643.35, 7247580,  57.28, -41.62, 2575039, 2574891, 2574791, 2574887, 2575069,      89,    1.19,   0.106,    9.77,   29.03,    0.08
277017207,2016-07-25T09:31:03.241,-1639.39, 7227194,  57.33, -41.60, 2575134, 2574906, 2574820, 2574916, 2575163,      72,    0.26,   0.102,   10.52,   31.89,    0.18
277017208,2016-07-25T09:31:07.401,-1635.23, 7205819,  57.37, -41.58, 2575247, 2574905, 2574828, 2574923, 2575276,      56,    1.11,   0.110,   13.71,   37.11,    0.25
277017209,2016-07-25T09:31:11.361,-1631.27, 7185433,  57.42, -41.55, 2575143, 2574907, 2574822, 2574917, 2575172,      71,    2.04,   0.112,   13.68,   36.38,    0.23
277017210,2016-07-25T09:31:15.321,-1627.31, 7165047,  57.47, -41.53, 2575000, 2574908, 2574816, 2574911, 2575029,      74,    2.53,   0.123,   11.96,   34.97,    0.21
277017211,2016-07-25T09:31:19.281,-1623.35, 7144721,  57.55, -41.51, 2575080, 2574840, 2574765, 2574859, 2575109,      95,    0.73,   0.109,    7.82,   27.05,    0.02
277017212,2016-07-25T09:31:23.241,-1619.39, 7124365,  57.64, -41.49, 2575091, 2574878, 2574818, 2574911, 2575120,      52,    1.40,   0.091,   12.63,   35.12,    0.26
277017213,2016-07-25T09:31:27.401,-1615.23, 7102990,  57.73, -41.46, 2575019, 2574896, 2574827, 2574920, 2575048,      59,    2.13,   0.080,   14.36,   36.33,    0.24
277017214,2016-07-25T09:31:31.361,-1611.27, 7082664,  57.81, -41.44, 2574982, 2574885, 2574821, 2574913, 2575011,      56,    2.48,   0.084,   15.50,   37.38,    0.26
277017215,2016-07-25T09:31:35.321,-1607.31, 7062368,  57.90, -41.44, 2575012, 2574852, 2574797, 2574888, 2575041,      50,    0.80,   0.060,   10.15,   31.14,    0.22
277017216,2016-07-25T09:31:39.281,-1603.35, 7041982,  57.99, -41.45, 2575174, 2574893, 2574824, 2574915, 2575204,      69,   -0.32,   0.032,   10.21,   30.28,    0.14
277017217,2016-07-25T09:31:43.241,-1599.39, 7021657,  58.08, -41.46, 2574901, 2574879, 2574813, 2574904, 2574931,      47,    1.11,   0.018,   12.57,   27.48,    0.19
277017218,2016-07-25T09:31:47.401,-1595.23, 7000341,  58.17, -41.46, 2574897, 2574859, 2574792, 2574881, 2574927,      56,    1.32,   0.034,    9.30,   28.47,    0.16
277017219,2016-07-25T09:31:51.361,-1591.27, 6980015,  58.24, -41.47, 2575303, 2574883, 2574819, 2574909, 2575332,      78,   -1.59,   0.044,   10.82,   29.74,    0.13
277017220,2016-07-25T09:31:55.321,-1587.31, 6959749,  58.31, -41.48, 2574906, 2574851, 2574780, 2574870, 2574935,      61,    0.79,   0.055,   10.05,   29.03,    0.11
277017221,2016-07-25T09:31:59.281,-1583.35, 6939423,  58.36, -41.49, 2575152, 2574860, 2574778, 2574867, 2575180,      90,   -0.25,   0.065,    8.57,   27.50,    0.08
277017222,2016-07-25T09:32:03.241,-1579.39, 6919157,  58.41, -41.49, 2575082, 2574860, 2574790, 2574879, 2575110,      80,   -0.02,   0.080,    8.78,   27.59,    0.00
277017223,2016-07-25T09:32:07.401,-1575.23, 6897842,  58.47, -41.49, 2575060, 2574875, 2574788, 2574877, 2575088,      91,    0.57,   0.090,    8.73,   27.07,    0.01
277017224,2016-07-25T09:32:11.361,-1571.27, 6877516,  58.53, -41.47, 2575153, 2574886, 2574814, 2574903, 2575181,      99,   -0.65,   0.084,    8.07,   25.36,    0.00
277017225,2016-07-25T09:32:15.321,-1567.31, 6857250,  58.59, -41.46, 2575148, 2574909, 2574833, 2574920, 2575176,      73,   -0.15,   0.076,    9.65,   30.77,    0.16
277017226,2016-07-25T09:32:19.281,-1563.35, 6836984,  58.65, -41.44, 2575044, 2574910, 2574793, 2574880, 2575072,     110,    0.31,   0.077,    6.10,   26.29,    0.11
277017227,2016-07-25T09:32:23.241,-1559.39, 6816718,  58.70, -41.43, 2575074, 2574910, 2574831, 2574918, 2575102,      81,    0.97,   0.081,    8.03,   28.46,    0.13
277017228,2016-07-25T09:32:27.400,-1555.24, 6795523,  58.77, -41.41, 2575038, 2574869, 2574801, 2574888, 2575065,      88,    0.55,   0.083,    7.51,   26.62,    0.03
277017229,2016-07-25T09:32:31.360,-1551.28, 6775227,  58.83, -41.41, 2575141, 2574901, 2574828, 2574915, 2575168,      96,    0.83,   0.102,    8.95,   29.30,    0.14
277017230,2016-07-25T09:32:35.320,-1547.32, 6754961,  58.89, -41.42, 2575206, 2574906, 2574829, 2574917, 2575233,     125,    0.47,   0.120,    8.30,   26.82,    0.01
277017231,2016-07-25T09:32:39.280,-1543.36, 6734815,  58.95, -41.44, 2575233, 2574887, 2574825, 2574914, 2575259,     112,   -0.78,   0.158,    7.09,   26.26,    0.03
277017232,2016-07-25T09:32:43.240,-1539.40, 6714519,  59.01, -41.44, 2575237, 2574871, 2574805, 2574894, 2575262,     124,   -0.51,   0.172,    7.51,   28.77,    0.11
277017233,2016-07-25T09:32:47.400,-1535.24, 6693294,  59.10, -41.41, 2575203, 2574885, 2574827, 2574915, 2575228,     131,   -0.05,   0.151,    7.09,   28.58,    0.01
277017234,2016-07-25T09:32:51.360,-1531.28, 6673058,  59.20, -41.40, 2575213, 2574900, 2574867, 2574953, 2575239,     134,   -0.04,   0.130,    4.97,   27.94,    0.28
277017235,2016-07-25T09:32:55.320,-1527.32, 6652852,  59.31, -41.39, 2575050, 2574896, 2574860, 2574944, 2575076,      87,   -0.33,   0.100,    6.25,   24.09,    0.03
277017236,2016-07-25T09:32:59.280,-1523.36, 6632676,  59.40, -41.37, 2575164, 2574905, 2574867, 2574951, 2575191,      91,   -0.44,   0.082,    8.27,   25.48,    0.03
277017237,2016-07-25T09:33:03.240,-1519.40, 6612470,  59.50, -41.35, 2575068, 2574908, 2574867, 2574949, 2575095,      94,   -0.15,   0.060,    7.22,   23.21,    0.07
277017238,2016-07-25T09:33:07.400,-1515.24, 6591274,  59.61, -41.33, 2575061, 2574835, 2574839, 2574921, 2575088,     113,    0.04,   0.046,    4.86,   20.44,    0.70
277017239,2016-07-25T09:33:11.360,-1511.28, 6571098,  59.70, -41.31, 2575076, 2574915, 2574854, 2574936, 2575104,      83,   -0.20,   0.048,    8.87,   25.12,    0.03
277017240,2016-07-25T09:33:15.320,-1507.32, 6550982,  59.79, -41.27, 2575062, 2574873, 2574879, 2574961, 2575088,     101,   -0.13,   0.064,    5.63,   18.96,    0.42
277017241,2016-07-25T09:33:19.280,-1503.36, 6530746,  59.86, -41.25, 2575084, 2574926, 2574873, 2574954, 2575111,     110,   -0.02,   0.063,    6.06,   23.08,    0.27
277017242,2016-07-25T09:33:23.240,-1499.40, 6510660,  59.93, -41.22, 2575069, 2574916, 2574855, 2574936, 2575095,      93,    0.41,   0.076,    8.22,   27.70,    0.05
277017243,2016-07-25T09:33:27.400,-1495.24, 6489435,  59.99, -41.21, 2575124, 2574924, 2574860, 2574941, 2575151,      86,    0.05,   0.064,    8.61,   26.46,    0.08
277017244,2016-07-25T09:33:31.360,-1491.28, 6469289,  60.05, -41.19, 2575109, 2574937, 2574863, 2574944, 2575135,      88,    0.20,   0.076,    7.30,   28.32,    0.05
277017245,2016-07-25T09:33:35.320,-1487.32, 6449173,  60.10, -41.18, 2575071, 2574932, 2574861, 2574941, 2575097,      55,    1.91,   0.075,   11.98,   35.72,    0.22
277017246,2016-07-25T09:33:39.280,-1483.36, 6429087,  60.15, -41.19, 2575191, 2574909, 2574826, 2574906, 2575217,      88,    0.01,   0.070,    9.51,   29.22,    0.04
277017247,2016-07-25T09:33:43.240,-1479.40, 6408911,  60.21, -41.20, 2575243, 2574937, 2574870, 2574950, 2575268,      76,   -0.27,   0.078,   11.27,   31.47,    0.18
277017248,2016-07-25T09:33:47.400,-1475.24, 6387775,  60.26, -41.19, 2575111, 2574926, 2574842, 2574922, 2575136,      93,    0.65,   0.101,    7.40,   28.68,    0.07
277017249,2016-07-25T09:33:51.360,-1471.28, 6367689,  60.34, -41.21, 2575149, 2574945, 2574876, 2574955, 2575174,      73,    1.16,   0.099,   12.08,   35.07,    0.22
277017250,2016-07-25T09:33:55.320,-1467.32, 6347603,  60.41, -41.22, 2575209, 2574922, 2574853, 2574933, 2575234,      80,    0.02,   0.113,   12.02,   33.14,    0.18
277017251,2016-07-25T09:33:59.280,-1463.36, 6327517,  60.49, -41.22, 2575172, 2574926, 2574843, 2574923, 2575196,      93,    0.54,   0.122,    9.53,   31.81,    0.17
277017252,2016-07-25T09:34:03.240,-1459.40, 6307461,  60.57, -41.21, 2575211, 2574893, 2574831, 2574910, 2575235,      98,    0.19,   0.117,   10.09,   29.64,    0.14
277017253,2016-07-25T09:34:07.400,-1455.24, 6286356,  60.67, -41.19, 2575144, 2574921, 2574863, 2574941, 2575169,     110,    0.29,   0.100,    8.47,   26.60,    0.02
277017254,2016-07-25T09:34:11.360,-1451.28, 6266299,  60.75, -41.17, 2575049, 2574900, 2574830, 2574908, 2575073,      87,    0.47,   0.091,    7.37,   25.10,    0.04
277017255,2016-07-25T09:34:15.320,-1447.32, 6246303,  60.84, -41.15, 2575006, 2574871, 2574832, 2574909, 2575031,      82,    0.22,   0.082,    7.42,   22.73,    0.16
277017256,2016-07-25T09:34:19.280,-1443.36, 6226187,  60.93, -41.12, 2575077, 2574932, 2574852, 2574928, 2575102,      85,    0.64,   0.071,    8.64,   28.30,    0.09
277017257,2016-07-25T09:34:23.240,-1439.40, 6206131,  61.01, -41.09, 2575110, 2574929, 2574851, 2574927, 2575135,      85,   -0.08,   0.073,    9.36,   26.97,    0.01
277017258,2016-07-25T09:34:27.400,-1435.24, 6185116,  61.10, -41.06, 2575079, 2574915, 2574850, 2574926, 2575103,      81,    0.04,   0.090,    9.71,   26.78,    0.07
277017259,2016-07-25T09:34:31.360,-1431.28, 6165060,  61.20, -41.03, 2575241, 2574937, 2574879, 2574954, 2575265,      90,   -0.63,   0.098,    9.63,   28.47,    0.15
277017260,2016-07-25T09:34:35.320,-1427.32, 6145123,  61.30, -41.02, 2575255, 2574907, 2574867, 2574942, 2575279,      98,   -0.66,   0.093,    8.97,   27.41,    0.10
277017261,2016-07-25T09:34:39.280,-1423.36, 6125127,  61.40, -41.02, 2575165, 2574941, 2574888, 2574962, 2575189,      83,   -0.34,   0.071,    9.14,   26.55,    0.00
277017262,2016-07-25T09:34:43.240,-1419.40, 6105071,  61.49, -41.02, 2575120, 2574946, 2574880, 2574954, 2575144,      72,    0.36,   0.061,    9.17,   28.90,    0.10
277017263,2016-07-25T09:34:47.400,-1415.24, 6084086,  61.59, -41.01, 2575051, 2574920, 2574889, 2574963, 2575075,      80,   -0.35,   0.059,    6.75,   22.01,    0.04
277017264,2016-07-25T09:34:51.360,-1411.28, 6064059,  61.66, -41.02, 2575053, 2574955, 2574899, 2574972, 2575078,      70,    0.28,   0.028,    8.92,   20.95,    0.09
277017265,2016-07-25T09:34:55.320,-1407.32, 6044093,  61.74, -41.02, 2574967, 2574964, 2574885, 2574958, 2574993,      56,    0.55,   0.008,   11.13,   22.43,    0.01
277017266,2016-07-25T09:34:59.280,-1403.36, 6024127,  61.81, -41.03, 2574972, 2574894, 2574855, 2574928, 2574998,      66,    0.29,   0.022,    6.51,   19.88,    0.17
277017267,2016-07-25T09:35:03.240,-1399.40, 6004191,  61.89, -41.03, 2575219, 2574983, 2574907, 2574979, 2575243,      73,    0.25,   0.043,    9.63,   28.01,    0.10
277017268,2016-07-25T09:35:07.399,-1395.24, 5983235,  61.97, -41.03, 2575101, 2574924, 2574839, 2574911, 2575125,      95,   -0.04,   0.070,    7.46,   24.17,    0.11
277017269,2016-07-25T09:35:11.359,-1391.28, 5963359,  62.04, -41.03, 2575036, 2574946, 2574867, 2574939, 2575059,      88,    0.80,   0.086,    9.91,   26.74,    0.09
277017270,2016-07-25T09:35:15.319,-1387.32, 5943393,  62.12, -41.02, 2575122, 2574953, 2574857, 2574929, 2575144,      98,    0.26,   0.098,    8.92,   26.22,    0.09
277017272,2016-07-25T09:35:23.239,-1379.40, 5903670,  62.30, -40.97, 2574968, 2574865, 2574824, 2574894, 2574991,      69,    0.18,   0.064,    5.73,   23.32,    0.09
277017273,2016-07-25T09:35:27.399,-1375.24, 5882715,  62.39, -40.94, 2575043, 2574909, 2574879, 2574949, 2575066,      66,   -0.30,   0.042,    0.68,   18.79,    0.24
277017274,2016-07-25T09:35:31.399,-1371.24, 5862629,  62.48, -40.91, 2575183, 2574957, 2574907, 2574976, 2575207,     137,   -0.19,   0.035,    1.92,   16.85,    0.82
277017275,2016-07-25T09:35:35.359,-1367.28, 5842783,  62.58, -40.88, 2574978, 2574897, 2574881, 2574950, 2575001,      51,   -0.57,   0.042,    0.71,   17.17,    0.62
277017276,2016-07-25T09:35:39.319,-1363.32, 5822816,  62.67, -40.84, 2575089, 2574946, 2574936, 2575005, 2575112,      87,   -0.29,   0.073,    1.42,   16.34,    0.58
277017277,2016-07-25T09:35:43.279,-1359.36, 5802820,  62.75, -40.81, 2575232, 2575130, 2575049, 2575118, 2575254,     102,    0.36,   0.098,    2.11,   19.04,    0.27
277017278,2016-07-25T09:35:47.239,-1355.40, 5782974,  62.83, -40.79, 2575632, 2575141, 2575105, 2575174, 2575654,     209,   -0.86,   0.106,    2.52,   18.72,    0.26
277017279,2016-07-25T09:35:51.399,-1351.24, 5762019,  62.93, -40.79, 2575686, 2575192, 2575171, 2575240, 2575708,     196,   -0.80,   0.089,    2.70,   20.26,    0.26
277017280,2016-07-25T09:35:55.359,-1347.28, 5742262,  63.03, -40.79, 2575222, 2575138, 2575086, 2575153, 2575244,      74,    0.69,   0.061,    3.96,   21.78,    0.08
277017281,2016-07-25T09:35:59.319,-1343.32, 5722446,  63.14, -40.80, 2575134, 2575148, 2575063, 2575130, 2575157,      62,    1.38,   0.038,    3.01,   23.42,    0.03
277017282,2016-07-25T09:36:03.279,-1339.36, 5702600,  63.25, -40.80, 2575221, 2575155, 2575131, 2575197, 2575244,      48,   -0.24,   0.026,    1.17,   16.59,    0.82
277017283,2016-07-25T09:36:07.239,-1335.40, 5682843,  63.35, -40.79, 2575235, 2575138, 2575078, 2575144, 2575258,      71,    0.48,   0.035,    4.01,   21.53,    0.03
277017284,2016-07-25T09:36:11.399,-1331.24, 5662068,  63.46, -40.78, 2575377, 2575122, 2575115, 2575181, 2575399,     102,   -1.14,   0.052,    4.84,   21.37,    0.05
277017285,2016-07-25T09:36:15.359,-1327.28, 5642311,  63.55, -40.78, 2575389, 2575112, 2575120, 2575186, 2575411,     119,   -0.18,   0.052,    3.96,   22.28,    0.46
277017286,2016-07-25T09:36:19.319,-1323.32, 5622615,  63.64, -40.78, 2575427, 2575022, 2575100, 2575165, 2575448,     137,   -0.31,   0.060,    5.58,   25.50,    0.50
277017287,2016-07-25T09:36:23.279,-1319.36, 5602769,  63.72, -40.78, 2575302, 2575088, 2575061, 2575127, 2575323,      94,   -0.88,   0.067,    4.78,   20.91,    0.05
277017288,2016-07-25T09:36:27.239,-1315.40, 5583042,  63.80, -40.77, 2575412, 2575069, 2575088, 2575153, 2575433,     130,   -1.18,   0.073,    7.25,   22.53,    0.02
277017289,2016-07-25T09:36:31.399,-1311.24, 5562267,  63.89, -40.76, 2575264, 2575112, 2575103, 2575167, 2575285,      86,   -0.59,   0.073,    6.14,   20.96,    0.04
277017290,2016-07-25T09:36:35.359,-1307.28, 5542600,  63.96, -40.74, 2575515, 2575063, 2575047, 2575112, 2575537,     107,   -2.64,   0.074,    9.48,   26.88,    0.24
277017291,2016-07-25T09:36:39.319,-1303.32, 5522874,  64.05, -40.73, 2575597, 2575050, 2575030, 2575094, 2575619,     124,   -2.69,   0.074,    8.90,   25.87,    0.25
277017292,2016-07-25T09:36:43.279,-1299.36, 5503148,  64.14, -40.71, 2575165, 2575060, 2574997, 2575061, 2575186,      58,    0.12,   0.072,    7.61,   24.46,    0.21
277017293,2016-07-25T09:36:47.239,-1295.40, 5483481,  64.22, -40.69, 2575538, 2575049, 2575019, 2575082, 2575559,     110,   -2.71,   0.066,    8.59,   26.67,    0.24
277017294,2016-07-25T09:36:51.399,-1291.24, 5462796,  64.31, -40.66, 2575109, 2575043, 2574985, 2575048, 2575130,      50,    0.05,   0.061,    6.75,   22.25,    0.14
277017295,2016-07-25T09:36:55.359,-1287.28, 5443099,  64.40, -40.63, 2575399, 2575054, 2575006, 2575069, 2575420,      77,   -2.59,   0.060,    9.03,   27.31,    0.24
277017296,2016-07-25T09:36:59.319,-1283.32, 5423433,  64.49, -40.60, 2575078, 2575065, 2574992, 2575054, 2575099,      53,    0.75,   0.058,    5.80,   23.80,    0.17
277017297,2016-07-25T09:37:03.279,-1279.36, 5403767,  64.58, -40.57, 2575607, 2575067, 2575054, 2575116, 2575628,     162,   -1.93,   0.072,    6.47,   23.99,    0.19
277017298,2016-07-25T09:37:07.239,-1275.40, 5384130,  64.67, -40.54, 2575541, 2575078, 2575084, 2575145, 2575561,     168,   -1.49,   0.078,    4.77,   22.97,    0.14
277017299,2016-07-25T09:37:11.399,-1271.24, 5363504,  64.78, -40.52, 2575538, 2575056, 2575127, 2575188, 2575558,     189,   -0.70,   0.076,    2.24,   17.05,    0.30
277017300,2016-07-25T09:37:15.359,-1267.28, 5343928,  64.88, -40.50, 2575614, 2575052, 2575123, 2575184, 2575634,     219,   -1.07,   0.081,    4.47,   22.69,    0.03
277017301,2016-07-25T09:37:19.319,-1263.32, 5324292,  64.98, -40.49, 2575589, 2575058, 2575196, 2575257, 2575609,     216,   -0.40,   0.070,    1.57,   16.85,    0.51
277017302,2016-07-25T09:37:23.279,-1259.36, 5304745,  65.09, -40.48, 2575411, 2575018, 2575067, 2575127, 2575431,     144,   -0.92,   0.056,    1.06,   16.82,    0.39
277017303,2016-07-25T09:37:27.239,-1255.40, 5284989,  65.20, -40.47, 2575522, 2575176, 2575200, 2575260, 2575542,     178,   -0.48,   0.037,    0.36,   18.54,    0.73
277017304,2016-07-25T09:37:31.398,-1251.24, 5264663,  65.31, -40.45, 2575470, 2575058, 2575111, 2575170, 2575491,     177,   -0.47,   0.033,   -0.50,   16.10,    1.52
277017305,2016-07-25T09:37:35.358,-1247.28, 5244577,  65.42, -40.43, 2575440, 2575024, 2575129, 2575188, 2575461,     159,   -0.49,   0.029,   -2.20,   15.04,    1.61
277017306,2016-07-25T09:37:39.318,-1243.32, 5225450,  65.55, -40.41, 2575137, 2575090, 2575064, 2575123, 2575157,      42,   -0.07,   0.037,   -1.35,   13.65,    0.98
277017307,2016-07-25T09:37:43.278,-1239.36, 5205454,  65.67, -40.40, 2575633, 2575510, 2575250, 2575309, 2575652,     215,    0.22,   0.051,    0.32,   22.63,    0.78
277017308,2016-07-25T09:37:47.238,-1235.40, 5186417,  65.78, -40.39, 2575136, 2575039, 2575012, 2575071, 2575156,      67,   -0.24,   0.060,    0.65,   15.51,    0.58
277017309,2016-07-25T09:37:51.398,-1231.24, 5165911,  65.88, -40.37, 2575377, 2575031, 2575057, 2575115, 2575397,     127,   -0.97,   0.054,    2.40,   19.04,    0.19